This is the latest recevied weather packets stored in our database for station/object F4FEB-13. If no packets are shown the sender has not sent any weather packets the latest 10 day(s).
| Time | Temp. | Humidity | Pressure | Rain* | Wind** | Luminosity | Snow |
|---|---|---|---|---|---|---|---|
| 1777796112 | 16.11° C | 58% | 1015.6 hPa | 0 mm | - | - | - |
| 1777796065 | 16.11° C | 58% | 1015.6 hPa | 0 mm | - | - | - |
| 1777795765 | 16.11° C | 59% | 1015.5 hPa | 0 mm | - | - | - |
| 1777795465 | 16.11° C | 59% | 1015.6 hPa | 0 mm | - | - | - |
| 1777795169 | 16.11° C | 59% | 1015.6 hPa | 0 mm | - | - | - |
| 1777795165 | 16.11° C | 59% | 1015.6 hPa | 0 mm | - | - | - |
| 1777794865 | 16.11° C | 58% | 1015.6 hPa | 0 mm | - | - | - |
| 1777794565 | 16.11° C | 58% | 1015.5 hPa | 0 mm | - | - | - |
| 1777794265 | 16.11° C | 57% | 1015.5 hPa | 0 mm | - | - | - |
| 1777793965 | 16.67° C | 56% | 1015.4 hPa | 0 mm | - | - | - |
| 1777793665 | 16.67° C | 54% | 1015.3 hPa | 0 mm | - | - | - |
| 1777793365 | 16.11° C | 54% | 1015.3 hPa | 0 mm | - | - | - |
| 1777793065 | 16.11° C | 53% | 1015.3 hPa | 0 mm | - | - | - |
| 1777792765 | 16.67° C | 53% | 1015.4 hPa | 0 mm | - | - | - |
| 1777792465 | 16.67° C | 53% | 1015.3 hPa | 0 mm | - | - | - |
| 1777792165 | 17.22° C | 50% | 1015.2 hPa | 0 mm | - | - | - |
| 1777791865 | 17.22° C | 45% | 1014.9 hPa | 0 mm | - | - | - |
| 1777791565 | 17.22° C | 43% | 1015.2 hPa | 0 mm | - | - | - |
| 1777791265 | 16.67° C | 44% | 1014.9 hPa | 0 mm | - | - | - |
| 1777790965 | 16.67° C | 43% | 1015.2 hPa | 0 mm | - | - | - |
| 1777790665 | 16.11° C | 45% | 1015.3 hPa | 0 mm | - | - | - |
| 1777790365 | 16.11° C | 51% | 1015.3 hPa | 0 mm | - | - | - |
| 1777790065 | 16.11° C | 52% | 1015.4 hPa | 0 mm | - | - | - |
| 1777789765 | 16.67° C | 48% | 1015.4 hPa | 0 mm | - | - | - |
| 1777789465 | 16.11° C | 46% | 1015.3 hPa | 0 mm | - | - | - |
* Rain latest hour (hover to see other rain measurements)
** Current wind speed in m/s (hover to see current wind gust speed)